Home   Weather   Bandar-Abbas   Past weeks

Flag for Iran Past Weather in Bandar-Abbas, Iran — Yesterday and Last 2 Weeks

Now
95 °F

Clear.


Feels Like: 116 °F
Forecast: 78 / 103 °F
Wind: 7 mph from Southwest

Location: Bandarabbass

Current Time: Aug 30, 2016 at 11:45:34 PM

Latest Report: Aug 30, 2016 at 11:00 PM


Visibility: 5 mi

Pressure: 29.56 "Hg

Humidity: 63%

Dew Point: 81 °F

Location of Bandar-AbbasLocation

Past Weather in Bandar-Abbas — Graph

°F

Bandar-Abbas Temperature Yesterday

Maximum temperature yesterday: 99 °F (at 12:30 PM)
Minimum temperature yesterday: 81 °F (at 6:30 AM)
Average temperature yesterday: 92 °F

High & Low Weather Summary for the Past Weeks

 TemperatureHumidityPressure
High111 °F (Aug 17, 11:00 AM)89% (Aug 20, 7:00 AM)29.71 "Hg (Aug 20, 7:00 AM)
Low79 °F (Aug 26, 4:30 AM)11% (Aug 23, 11:00 AM)29.39 "Hg (Aug 16, 4:30 PM)
Average96 °F50%29.55 "Hg
* Reported Aug 15 10:30 PM — Aug 30 10:30 PM, Bandar-Abbas, Weather by CustomWeather, © 2016

Note: Actual official high and low records may vary slightly from our data, if they occured in-between our weather recording intervals... More about our weather records

Advertising

Bandar-Abbas Weather History for the Previous 24 Hours

Scroll right to see more
 ConditionsComfort  
Time TempWeatherWind HumidityBarometerVisibility
10:30 PM
Tue, Aug 30
97 °FClear.9 mph47%29.53 "Hg5 mi
10:00 PM97 °FClear.9 mph50%29.53 "Hg5 mi
9:30 PM97 °FClear.12 mph53%29.53 "Hg10 mi
9:00 PM97 °FClear.7 mph56%29.50 "Hg10 mi
8:30 PM99 °FSunny.9 mph53%29.50 "Hg10 mi
8:00 PM99 °FSunny.14 mph57%29.53 "Hg10 mi
7:30 PM100 °FSunny.12 mph47%29.50 "Hg10 mi
7:00 PM102 °FSunny.9 mph35%29.50 "Hg10 mi
6:30 PM102 °FSunny.12 mph35%29.47 "Hg10 mi
6:00 PM104 °FSunny.9 mph29%29.47 "Hg10 mi
5:30 PM108 °FSunny.14 mph20%29.47 "Hg10 mi
5:00 PM108 °FSunny.14 mph22%29.50 "Hg10 mi
4:30 PM108 °FSunny.14 mph23%29.50 "Hg10 mi
4:00 PM109 °FSunny.12 mph21%29.50 "Hg10 mi
3:30 PM109 °FSunny.14 mph21%29.50 "Hg10 mi
3:00 PM108 °FSunny.14 mph20%29.53 "Hg10 mi
2:30 PM108 °FSunny.12 mph23%29.53 "Hg10 mi
2:00 PM108 °FSunny.12 mph23%29.56 "Hg10 mi
1:30 PM109 °FSunny.12 mph22%29.56 "Hg10 mi
1:00 PM108 °FSunny.9 mph23%29.59 "Hg10 mi
12:30 PM108 °FSunny.9 mph28%29.59 "Hg10 mi
12:00 PM106 °FSunny.9 mph26%29.59 "Hg10 mi
11:30 AM108 °FSunny.7 mph25%29.62 "Hg10 mi
11:00 AM106 °FSunny.5 mph22%29.62 "Hg10 mi
10:30 AM104 °FSunny.5 mph21%29.62 "Hg10 mi
10:00 AM102 °FSunny.5 mph24%29.62 "Hg10 mi
9:30 AM100 °FSunny.2 mph33%29.62 "Hg10 mi
9:00 AM97 °FSunny.No wind42%29.62 "Hg10 mi
8:30 AM91 °FClear.5 mph56%29.62 "Hg5 mi
8:00 AM90 °FSunny.No wind63%29.62 "Hg10 mi
7:30 AM84 °FClear.No wind84%29.62 "Hg5 mi
7:00 AM82 °FClear.No wind89%29.59 "Hg5 mi
6:30 AM82 °FClear.5 mph89%29.59 "Hg4 mi
5:30 AM84 °FClear.5 mph89%29.59 "Hg4 mi
4:30 AM86 °FClear.5 mph84%29.59 "Hg4 mi
3:30 AM86 °FClear.7 mph84%29.59 "Hg4 mi
2:30 AM86 °FClear.5 mph84%29.59 "Hg5 mi
2:00 AM86 °FClear.7 mph84%29.59 "Hg5 mi
1:30 AM86 °FClear.7 mph84%29.62 "Hg5 mi
1:00 AM88 °FClear.7 mph79%29.59 "Hg5 mi
12:30 AM88 °FClear.9 mph79%29.62 "Hg5 mi
12:00 AM88 °FClear.7 mph79%29.62 "Hg5 mi
11:30 PM
Mon, Aug 29
88 °FClear.7 mph79%29.62 "Hg5 mi
11:00 PM90 °FClear.9 mph79%29.62 "Hg5 mi
Weather by CustomWeather, © 2016

See weather overviewHow to use our weather pages